星链-4456 (STARLINK-4456 )

导读 | 星芒AI

STARLINK-4456 是 SpaceX Starlink 卫星互联网项目中的一颗低轨通信卫星。该卫星属于 Starlink 群体部署计划的一部分,旨在为全球用户提供高速、低延迟的互联网服务。它运行在约 550 公里的轨道高度,采用先进的相控阵天线和激光通信技术,以提升网络性能和覆盖范围。STARLINK-4456 的发射和运行有助于扩展 Starlink 在偏远和农村地区的网络接入能力,支持全球更多用户享受稳定可靠的互联网连接。

基本信息
目录编号:
53673
目录名称:
STARLINK-4456
国际标识:
2022-105AB
轨道中心:
EARTH
卫星名称:
星链-4456
卫星全名:
星链-4456 (STARLINK-4456 )
卫星状态:
在轨 (已飞行1166 天)
发射日期:
2022-08-31 UTC
国别 :
美国 (US)
星等 :
--
轨道信息
数据来源 国际轨道数据
星历时间: 2025-11-08T13:36:09+0800
1天前
查看轨道信息
半长轴: 6927.62km
偏心率: 0.0002204
轨道倾角: 97.603°
近地点辐角 84.181°
升交点赤经 191.517°
平近点角 275.967°
近地点: 547.958km
远地点: 551.012km
周期: 95.639分钟
每日圈数: 15.056592
详细信息
固有亮度:
5
最大亮度:
2.5
卫星平台:
Starlink v1.5
覆盖范围:
全球
运营商:
太空探索技术公司
运营商所在国:
美国
制造商(研发单位):
太空探索技术公司
制造商所在国:
美国
使用方式:
暂无
卫星简介
星链(Starlink)计划是由太空探索技术公司(SpaceX)提出的一个巨型低轨卫星互联网星座项目,计划在2019年至2024年间在太空搭建由约1.2万颗卫星组成的“星链”网络,其中1584颗将部署在地球上空550千米处的近地轨道,并从2020年开始工作。该卫星仍在工作。
2D轨道图
3D轨道图
轨道高度分析图
轨道倾角分析图
轨道综合分析图
查看轨道综合分析图